sat.trackr.live / text

‹ back to catalog

ASTROSAT

NORAD 40930 · 2015-052A

PAYLOAD ACTIVE UNKNOWN

§ Identity

Operator
Country
IND
Launch date
2015-09-28
Launch site
SRILR
Launch vehicle
Mass (kg)
RCS (m²)
4.88

Purposes: science

External: N2YO · Heavens-Above · Gunter

§ Orbital elements

Epoch: 2026-09-10T04:31:38.046720Z

Period
97.12 min
Inclination
5.9966°
Eccentricity
0.0007838
Mean motion
14.82635429 rev/d
Perigee alt
615.5 km
Apogee alt
626.5 km
Semi-major
6,999.2 km
B*
8.3696e-5
RAAN
263.4555°
Arg perigee
172.8937°
Mean anomaly
187.1302°
Rev number
59,246

§ Raw data

ASTROSAT1 40930U 15052A   26253.18863480  .00001361  00000+0  83696-4 0  99912 40930   5.9966 263.4555 0007838 172.8937 187.1302 14.82635429592468

JSON: /api/v1/satellites/40930 · /tle

For live sub-satellite position, see the globe view (requires WebGL).

§ Visibility from observer

Set your observer location to see the next 7 days of passes ≥ 10°. The values pass through the URL so the page stays shareable.

No JS? Fill the form by hand. The geolocation button needs JavaScript.